This is the latest recevied weather packets stored in our database for station/object OK1SK-13. If no packets are shown the sender has not sent any weather packets the latest 10 day(s).
| Time | Temp. | Humidity | Pressure | Rain* | Wind** | Luminosity | Snow |
|---|---|---|---|---|---|---|---|
| 1777496934 | 17.22° C | 59% | 1027.1 hPa | - | - | - | - |
| 1777496036 | 17.22° C | 58% | 1027 hPa | - | - | - | - |
| 1777495138 | 17.22° C | 58% | 1027 hPa | - | - | - | - |
| 1777494240 | 17.22° C | 58% | 1026.9 hPa | - | - | - | - |
| 1777493342 | 17.22° C | 58% | 1026.8 hPa | - | - | - | - |
| 1777492444 | 17.22° C | 58% | 1026.8 hPa | - | - | - | - |
| 1777491546 | 17.22° C | 58% | 1026.7 hPa | - | - | - | - |
| 1777490648 | 17.22° C | 58% | 1026.7 hPa | - | - | - | - |
| 1777489750 | 17.22° C | 57% | 1026.5 hPa | - | - | - | - |
| 1777488853 | 17.78° C | 57% | 1026.3 hPa | - | - | - | - |
| 1777487955 | 17.78° C | 57% | 1026.2 hPa | - | - | - | - |
| 1777487057 | 17.78° C | 56% | 1026 hPa | - | - | - | - |
| 1777486159 | 17.78° C | 56% | 1025.9 hPa | - | - | - | - |
| 1777485260 | 17.78° C | 54% | 1025.6 hPa | - | - | - | - |
| 1777484362 | 17.78° C | 52% | 1025.4 hPa | - | - | - | - |
| 1777483464 | 17.78° C | 47% | 1025.3 hPa | - | - | - | - |
| 1777482566 | 17.78° C | 48% | 1025.2 hPa | - | - | - | - |
| 1777481668 | 17.78° C | 48% | 1025 hPa | - | - | - | - |
| 1777480770 | 17.78° C | 49% | 1024.8 hPa | - | - | - | - |
| 1777479873 | 17.78° C | 51% | 1024.8 hPa | - | - | - | - |
| 1777478975 | 17.78° C | 51% | 1024.7 hPa | - | - | - | - |
| 1777478077 | 17.78° C | 53% | 1024.7 hPa | - | - | - | - |
| 1777477178 | 17.78° C | 54% | 1024.6 hPa | - | - | - | - |
| 1777476280 | 180° C | 53% | 1008.5 hPa | - | - | - | - |
| 1777475381 | 18.33° C | 54% | 1024.6 hPa | - | - | - | - |
* Rain since midnight (hover to see other rain measurements)
** Current wind speed in m/s (hover to see current wind gust speed)